Torna al catalogo

CZ-6A DEB

AttivoSSO
NORAD 54389·DEBRIS·🇨🇳 China

Lanciato Nov 11, 2022 da Taiyuan Satellite Launch Center

Loading…

Prossimi Passaggi (prossime 24 ore)

TLE

AggiornatoSource: Space-Track

Epoca: Sep 14, 2026, 14:55 UTC

1 54389U 22151DM  26257.62210525  .00000558  00000-0  42292-3 0  9995
2 54389  98.9297 224.2026 0127546 199.0779 160.5582 13.94251525194738

Traccia CZ-6A DEB in tempo reale con AllMySat

Download on the App Store